Weather in Bobya-Ucha

Russia / Udmurt Republic     56°29′20″N   52°41′03″E
temp.,
°C
wind,
m/s
gust,
m/s
humid.,
%
clouds,
%
prec.,
mm/h
press.,
hPa
HPBL,
m
18 may, tue
tue1801:00+17n22837 0.3 101718
04:00+15n34865 0.3 101861
07:00+18nne347267 0.0 1018187
10:00+23n445527 0.0 1018861
13:00+25n4439100 0.0 10181469
16:00+25n4434100 0.0 10181749
19:00+21ene365751 0.0 1018155
22:00+17ene5126510 0.0 1020293
19 may, wed
wed1901:00+14ene38785 0.0 1020164
04:00+13e39877 0.0 1021191
07:00+15e587576 0.0 1022376
10:00+19e67545 0.0 1022842
13:00+23ese67405 0.0 10211234
16:00+23se56385 0.0 10211306
19:00+20ese37545 0.0 1021199
22:00+15ese33632 0.0 102143
20 may, thu
thu2001:00+13ese33685 0.0 102142
04:00+12ese22715 0.0 102220
07:00+16se246257 0.0 1021159
10:00+21sse34495 0.0 1021723
13:00+24sse55395 0.0 10201743
16:00+24sse56375 0.0 10191865
19:00+21se37540 0.0 1018201
22:00+16se34630 0.0 101861
21 may, fri
fri2101:00+14se22660 0.0 101820
04:00+13ese33670 0.0 101841
07:00+16ese48641 0.0 1017267
10:00+21se5746100 0.0 1016759
13:00+23se683849 0.0 10141979
16:00+16ese377498 0.3 1014290
19:00+15s3882100 0.0 1014287
22:00+15ssw2591100 0.0 1014212
22 may, sat
sat2201:00+14s2691100 0.0 1014184
04:00+12ssw37962 0.1 1015157
07:00+15wsw59790 0.0 1016522
10:00+18wsw795878 0.0 10161191
13:00+20wsw6855100 0.0 10171664
16:00+20w5762100 0.1 10181196
19:00+18nw367291 0.1 1019389
22:00+13wnw239160 0.1 102152